This demonstration page uses our WeatherBlox Daily Observations layout. Learn more.

Left ArrowRight Arrow

Hourly Observations for March 6, 2017

Temp ( °F °C ) Dew Point ( °F °C ) Humidity (%) Winds ( mph kmh ) Pressure ( in mb ) Visibility ( mi km ) Precip ( " mm )
12:53 am 00:53 Cloudy 57 13.9 39 3.9 51 51 SW 13 20 30.26 1025 10 16.0934 N/A
1:53 am 01:53 Cloudy 57 13.9 41 5 55 55 SW 9 15 30.26 1025 10 16.0934 N/A
2:53 am 02:53 Cloudy 56 13.3 41 5 57 57 SSW 6 9 30.25 1025 10 16.0934 N/A
3:53 am 03:53 Cloudy 56 13.3 40 4.4 55 55 S 5 7 30.24 1024 10 16.0934 N/A
4:53 am 04:53 Cloudy 52 11.1 42 5.6 69 69 N N/A 30.23 1024 10 16.0934 N/A
5:53 am 05:53 Cloudy 56 13.3 40 4.4 55 55 SSW 8 13 30.24 1024 10 16.0934 N/A
6:53 am 06:53 Cloudy 55 12.8 45 7.2 69 69 SSW 5 7 30.23 1024 10 16.0934 N/A
7:36 am 07:36 Cloudy with Light Rain 54 12.2 46 7.8 75 75 SSW 10 17 30.24 1024 10 16.0934 N/A
7:53 am 07:53 Cloudy with Light Rain 53 11.7 46 7.8 77 77 VRB 6 9 30.24 1024 10 16.0934 N/A
8:53 am 08:53 Cloudy with Light Rain 51 10.6 49 9.4 92 92 VRB 6 9 30.25 1025 2.5 4.02335 0.02 0.508
9:20 am 09:20 Cloudy with Light Rain 50 10 49 9.4 96 96 VRB 6 9 30.24 1024 3 4.82802 0.01 0.254
9:41 am 09:41 Cloudy with Mist and Fog 51 10.6 50 10 96 96 VRB 7 11 30.24 1024 5 8.0467 0.01 0.254
9:53 am 09:53 Cloudy with Light Rain 51 10.6 50 10 96 96 undefined N/A 30.23 1024 2.5 4.02335 0.01 0.254
10:15 am 10:15 Cloudy with Light Rain 51 10.6 50 10 96 96 SSE 5 7 30.24 1024 4 6.43736 0.01 0.254
10:26 am 10:26 Cloudy with Light Rain 51 10.6 50 10 96 96 SSE 5 7 30.24 1024 2.5 4.02335 0.02 0.508
10:33 am 10:33 Cloudy with Mist and Fog 51 10.6 50 10 96 96 VRB 5 7 30.21 1023 3 4.82802 0.02 0.508
10:53 am 10:53 Cloudy with Light Rain 51 10.6 50 10 96 96 S 7 11 30.22 1023 6 9.65604 0.02 0.508
11:04 am 11:04 Cloudy with Light Rain 52 11.1 50 10 93 93 S 8 13 30.21 1023 10 16.0934 N/A
11:19 am 11:19 Cloudy 52 11.1 50 10 93 93 VRB 7 11 30.21 1023 9 14.48406 N/A
11:53 am 11:53 Cloudy 54 12.2 51 10.6 90 90 VRB 7 11 30.19 1022 10 16.0934 N/A
12:10 pm 12:10 Cloudy 56 13.3 51 10.6 84 84 S 9 15 30.18 1022 10 16.0934 N/A
12:53 pm 12:53 Cloudy with Light Rain 57 13.9 50 10 78 78 SSW 10 17 30.16 1022 5 8.0467 N/A
1:01 pm 13:01 Cloudy with Rain 56 13.3 51 10.6 84 84 SSW 13 20 30.18 1022 1.75 2.816345 0.04 1.016
1:11 pm 13:11 Cloudy with Light Rain 55 12.8 52 11.1 90 90 SSW 8 13 30.15 1021 4 6.43736 0.05 1.27
1:53 pm 13:53 Cloudy with Light Rain 55 12.8 53 11.7 93 93 S 7 11 30.14 1021 8 12.87472 0.07 1.778
2:30 pm 14:30 Cloudy with Light Rain 55 12.8 53 11.7 93 93 S 6 9 30.12 1020 5 8.0467 0.02 0.508
2:53 pm 14:53 Cloudy with Light Rain 55 12.8 53 11.7 93 93 VRB 6 9 30.12 1020 4 6.43736 0.05 1.27
3:53 pm 15:53 Cloudy 56 13.3 54 12.2 93 93 SSE 7 11 30.1 1019 10 16.0934 0.02 0.508
4:53 pm 16:53 Cloudy 57 13.9 53 11.7 87 87 VRB 7 11 30.09 1019 10 16.0934 N/A
5:53 pm 17:53 Cloudy 57 13.9 53 11.7 87 87 VRB 5 7 30.08 1019 10 16.0934 N/A
6:53 pm 18:53 Cloudy with Light Rain 56 13.3 54 12.2 93 93 SE 3 6 30.07 1018 6 9.65604 0.03 0.762
7:53 pm 19:53 Cloudy with Light Rain 56 13.3 53 11.7 90 90 SSE 8 13 30.08 1019 10 16.0934 0.03 0.762
8:53 pm 20:53 Cloudy with Light Rain 56 13.3 54 12.2 93 93 VRB 3 6 30.06 1018 5 8.0467 0.04 1.016
9:53 pm 21:53 Cloudy with Light Rain 56 13.3 54 12.2 93 93 S 6 9 30.03 1017 10 16.0934 0.01 0.254
10:53 pm 22:53 Cloudy 57 13.9 53 11.7 87 87 SSE 8 13 29.99 1016 10 16.0934 N/A
11:53 pm 23:53 Mostly Cloudy 58 14.4 51 10.6 78 78 SSE 9 15 29.96 1014 10 16.0934 N/A

Powered by AerisWeather